This is the latest recevied weather packets stored in our database for station/object ES0THZ-13. If no packets are shown the sender has not sent any weather packets the latest 10 day(s).
| Time | Temp. | Humidity | Pressure | Rain* | Wind** | Luminosity | Snow |
|---|---|---|---|---|---|---|---|
| 1777780066 | 10° C | 77% | 1003.4 hPa | - | - | - | - |
| 1777778966 | 9.44° C | 77% | 1003.1 hPa | - | - | - | - |
| 1777777886 | 8.33° C | 78% | 1004 hPa | - | - | - | - |
| 1777776806 | 7.22° C | 79% | 1003.3 hPa | - | - | - | - |
| 1777775761 | 7.22° C | 79% | 1003.2 hPa | - | - | - | - |
| 1777774596 | 7.22° C | 79% | 1003.5 hPa | - | - | - | - |
| 1777773511 | 7.22° C | 78% | 1003.4 hPa | - | - | - | - |
| 1777772441 | 7.78° C | 78% | 1003.8 hPa | - | - | - | - |
| 1777771271 | 8.33° C | 78% | 1004 hPa | - | - | - | - |
| 1777770111 | 8.33° C | 77% | 1003.4 hPa | - | - | - | - |
| 1777769091 | 8.33° C | 77% | 1003.6 hPa | - | - | - | - |
| 1777768031 | 8.33° C | 76% | 1004.8 hPa | - | - | - | - |
| 1777766876 | 8.33° C | 76% | 1004.5 hPa | - | - | - | - |
| 1777765861 | 8.33° C | 76% | 1004.9 hPa | - | - | - | - |
| 1777764691 | 8.33° C | 75% | 1003.5 hPa | - | - | - | - |
| 1777763541 | 8.89° C | 75% | 1004.8 hPa | - | - | - | - |
| 1777762464 | 8.89° C | 74% | 1004.7 hPa | - | - | - | - |
| 1777761351 | 8.89° C | 74% | 1005 hPa | - | - | - | - |
| 1777760256 | 8.89° C | 74% | 1005.1 hPa | - | - | - | - |
| 1777759196 | 8.89° C | 73% | 1004.6 hPa | - | - | - | - |
| 1777758021 | 9.44° C | 73% | 1005.6 hPa | - | - | - | - |
| 1777756991 | 9.44° C | 72% | 1006.4 hPa | - | - | - | - |
| 1777755861 | 9.44° C | 71% | 1005.4 hPa | - | - | - | - |
| 1777754846 | 9.44° C | 70% | 1006.6 hPa | - | - | - | - |
| 1777753777 | 10° C | 69% | 1006.4 hPa | - | - | - | - |
* Rain since midnight (hover to see other rain measurements)
** Current wind speed in m/s (hover to see current wind gust speed)